Location: Acheville
(50.3840°N, 2.8827°E)
Time: 18:40:22
(UTC+00:00)

Cosmos 1758 Rocket - Pass Details

Date: 24 October 2021
Orbit: 603 x 635 km, 82.5° (Epoch: 07 December)

Event Time Altitude Azimuth Distance (km) Brightness Sun altitude
Rises 18:13:05 0° 352° (N) 2,870 7.1 -15.7°
Reaches altitude 10° 18:15:21 10° 357° (N) 1,962 6.2 -16.0°
Maximum altitude 18:19:37 56° 76° (ENE) 722 3.5 -16.7°
Drops below altitude 10° 18:23:53 10° 156° (SSE) 1,957 5.9 -17.4°
Enters shadow 18:24:13 - 157° (SSE) 2,095 6.0 -17.4°
